This is the latest recevied weather packets stored in our database for station/object JE7UPL-13. If no packets are shown the sender has not sent any weather packets the latest 10 day(s).
| Time | Temp. | Humidity | Pressure | Rain* | Wind** | Luminosity | Snow |
|---|---|---|---|---|---|---|---|
| 1777821305 | 12.22° C | 95% | 996.8 hPa | 0 mm | - | - | - |
| 1777820410 | 12.22° C | 95% | 996.9 hPa | 0 mm | - | - | - |
| 1777819505 | 12.22° C | 94% | 997.6 hPa | 0 mm | - | - | - |
| 1777818606 | 12.22° C | 94% | 997.7 hPa | 0 mm | - | - | - |
| 1777817706 | 12.22° C | 94% | 998.1 hPa | 0 mm | - | - | - |
| 1777816806 | 12.22° C | 93% | 998.8 hPa | 0 mm | - | - | - |
| 1777815905 | 12.22° C | 94% | 999.3 hPa | 0 mm | - | - | - |
| 1777815006 | 12.22° C | 94% | 999.7 hPa | 0 mm | - | - | - |
| 1777814105 | 12.22° C | 94% | 999.6 hPa | 0 mm | - | - | - |
| 1777813206 | 12.22° C | 93% | 1000 hPa | 0 mm | - | - | - |
| 1777812305 | 12.22° C | 93% | 999.9 hPa | 0 mm | - | - | - |
| 1777811406 | 12.22° C | 92% | 1000.6 hPa | 0 mm | - | - | - |
| 1777810504 | 12.22° C | 91% | 1000.9 hPa | 0 mm | - | - | - |
| 1777809605 | 12.22° C | 90% | 1001.2 hPa | 0 mm | - | - | - |
| 1777808705 | 12.22° C | 89% | 1001.5 hPa | 0 mm | - | - | - |
| 1777807805 | 12.22° C | 89% | 1001.9 hPa | 0 mm | - | - | - |
| 1777806905 | 12.78° C | 88% | 1002.1 hPa | 0 mm | - | - | - |
| 1777806005 | 12.78° C | 88% | 1002.1 hPa | 0 mm | - | - | - |
| 1777805105 | 12.78° C | 87% | 1002.3 hPa | 0 mm | - | - | - |
| 1777804205 | 12.78° C | 86% | 1002.2 hPa | 0 mm | - | - | - |
| 1777803304 | 13.33° C | 84% | 1002.4 hPa | 0 mm | - | - | - |
| 1777802405 | 13.89° C | 80% | 1002.1 hPa | 0 mm | - | - | - |
| 1777801505 | 14.44° C | 74% | 1001.9 hPa | 0 mm | - | - | - |
| 1777800605 | 14.44° C | 72% | 1002 hPa | 0 mm | - | - | - |
| 1777799705 | 15° C | 71% | 1001.9 hPa | 0 mm | - | - | - |
* Rain latest hour (hover to see other rain measurements)
** Current wind speed in m/s (hover to see current wind gust speed)